Regional Weather Roundup
Issued by NWS Midland/Odessa, TX

Skip options and go directly to product.
Home | Oldest Version | Previous Version | Current Version | All | Text Only | Save Text | Print | Product List | Glossary On

Skip product version selection by date and time.   
164
ASUS44 KMAF 300810
RWRMAF
MIDLAND AREA WEATHER ROUNDUP
NATIONAL WEATHER SERVICE MIDLAND TX
300 AM CDT THU JUL 30 2015

...IN SOUTHWEST TEXAS AND SOUTHEAST NEW MEXICO...

CITY           SKY/WX    TMP DP  RH WIND       PRES   REMARKS
ALPINE         MOCLDY    74  54  49 CALM      30.28R
ANDREWS        LGT RAIN  80  62  55 SE8       30.17R
ARTESIA        MOCLDY    77  61  57 N13       30.18R
BIG SPRING     CLEAR     78  54  43 SE7       30.14S
CARLSBAD       CLEAR     74  60  61 S3        30.13S
DRYDEN           N/A     83  58  42 S10       30.08R
FORT STOCKTON  PTCLDY    78  56  46 S10       30.13R
GUAD PASS      CLEAR     73  53  49 E8        30.29S
HOBBS          PTCLDY    72  66  83 CALM      30.19S
MARFA          MOCLDY    66  57  72 N7        30.26S
MIDLAND AIRPK  PTCLDY    79  68  68 CALM      30.15R
MIDLAND INTL   PTCLDY    81  60  48 S7        30.13S
ODESSA         PTCLDY    84  52  33 S7        30.15R
PECOS          PTCLDY    81  52  36 SE6       30.09S
PRESIDIO       FAIR      79  62  56 CALM      30.08S
SEMINOLE       PTCLDY    74  60  61 CALM      30.18R
SNYDER         PTCLDY    81  62  52 SE8       30.12R
WINK           CLEAR     82  52  35 SE7       30.11S
$$
...OTHER STATIONS IN TEXAS...

CITY           SKY/WX    TMP DP  RH WIND       PRES   REMARKS
ABILENE        CLEAR     79  63  57 SE8       30.08F
AMARILLO       PTCLDY    70  68  93 N7        30.23S
AUSTIN         CLEAR     77  72  84 SW5       30.05S
BROWNSVILLE    CLEAR     77  75  93 SE5       30.01F
CORPUS CHRISTI MOCLDY    74  72  93 S3        30.02F
DALLAS FTW     CLEAR     83  65  54 E3        30.04S
DEL RIO        CLEAR     83  69  62 SE8       30.02S
EL PASO        MOCLDY    74  62  66 N17       30.17S THUNDER
HOUSTON INT    CLEAR     82  76  81 CALM      30.02S
LUBBOCK        PTCLDY    72  64  76 E5        30.17S
SAN ANGELO     CLEAR     82  59  45 S10       30.08S
SAN ANTONIO    PTCLDY    79  69  71 S6        30.07F
WACO           CLEAR     79  67  66 SW6       30.03F
WICHITA FALLS  NOT AVBL
$$
...OTHER LOCATIONS IN NEW MEXICO...

CITY           SKY/WX    TMP DP  RH WIND       PRES   REMARKS
ALAMAGORDO     MOCLDY    68  63  83 N13       30.26S
ALBUQUERQUE    CLOUDY    67  57  70 E26G33    30.34F
CANNON AFB     CLOUDY    72  65  79 N13       30.26R
CLOVIS         MOCLDY    70  63  78 NE3       30.27R
HOLLOMAN AFB   MOCLDY    71  61  68 NW13      30.23R
ROSWELL        CLOUDY    73  65  75 N18G25    30.21R
RUIDOSO          N/A    N/A N/A N/A MISG        N/A
SANTA FE       LGT RAIN  60  57  89 NW3       30.43F
TRUTH OR CONSE LGT RAIN  65  62  90 NW10      30.32F
TUCUMCARI      TSTM      66  63  90 W18       30.32R
$$

USA.gov is the U.S. government's official web portal to all federal, state and local government web resources and services.